Time,TemperatureF,DewpointF,PressureIn,WindDirection,WindDirectionDegrees,WindSpeedMPH,WindSpeedGustMPH,Humidity,HourlyPrecipIn,Conditions,Clouds,dailyrainin,SoftwareType,DateUTC
2013-12-18 00:05:00,53.3,51.0,29.94,North,350,0.0,0.0,92,0.00,,,0.00,Wunderground v.1.15,2013-12-18 08:05:00,
2013-12-18 00:15:00,53.2,51.2,29.94,North,349,0.0,0.0,93,0.00,,,0.00,Wunderground v.1.15,2013-12-18 08:15:00,
2013-12-18 00:25:00,52.8,50.8,29.93,North,354,0.0,0.0,93,0.00,,,0.00,Wunderground v.1.15,2013-12-18 08:25:00,
2013-12-18 00:35:00,52.7,50.7,29.93,NNW,344,0.0,0.0,93,0.00,,,0.00,Wunderground v.1.15,2013-12-18 08:35:00,
2013-12-18 00:44:00,52.6,50.9,29.93,WNW,293,0.0,0.0,94,0.00,,,0.00,Wunderground v.1.15,2013-12-18 08:44:00,
2013-12-18 00:50:00,52.4,50.7,29.92,WNW,293,0.0,0.0,94,0.00,,,0.00,Wunderground v.1.15,2013-12-18 08:50:00,
2013-12-18 01:00:00,52.4,50.7,29.92,WNW,300,0.0,1.0,94,0.00,,,0.00,Wunderground v.1.15,2013-12-18 09:00:00,
2013-12-18 01:05:00,52.6,51.2,29.92,WNW,300,0.0,1.0,95,0.00,,,0.00,Wunderground v.1.15,2013-12-18 09:05:00,
2013-12-18 01:15:00,52.6,51.2,29.92,WSW,246,0.0,0.0,95,0.00,,,0.00,Wunderground v.1.15,2013-12-18 09:15:00,
2013-12-18 01:25:00,52.7,51.3,29.91,WSW,246,0.0,0.0,95,0.00,,,0.00,Wunderground v.1.15,2013-12-18 09:25:00,
2013-12-18 01:35:00,52.4,51.0,29.91,WSW,246,0.0,0.0,95,0.00,,,0.00,Wunderground v.1.15,2013-12-18 09:35:00,
2013-12-18 01:45:00,52.0,50.6,29.91,WSW,246,0.0,0.0,95,0.00,,,0.00,Wunderground v.1.15,2013-12-18 09:45:00,
2013-12-18 01:55:00,51.5,50.1,29.90,WSW,246,0.0,0.0,95,0.00,,,0.00,Wunderground v.1.15,2013-12-18 09:55:00,
2013-12-18 02:05:00,51.3,49.9,29.90,WSW,246,0.0,0.0,95,0.00,,,0.00,Wunderground v.1.15,2013-12-18 10:05:00,
2013-12-18 02:15:00,51.1,49.7,29.90,WSW,246,0.0,0.0,95,0.00,,,0.00,Wunderground v.1.15,2013-12-18 10:15:00,
2013-12-18 02:25:00,51.3,49.9,29.91,ESE,109,0.0,0.0,95,0.00,,,0.00,Wunderground v.1.15,2013-12-18 10:25:00,
2013-12-18 02:29:00,51.1,49.7,29.91,ESE,109,0.0,0.0,95,0.00,,,0.00,Wunderground v.1.15,2013-12-18 10:29:00,
2013-12-18 02:40:00,51.6,50.5,29.92,WNW,285,0.0,1.0,96,0.00,,,0.00,Wunderground v.1.15,2013-12-18 10:40:00,
2013-12-18 02:50:00,52.0,50.9,29.92,WNW,285,0.0,0.0,96,0.00,,,0.00,Wunderground v.1.15,2013-12-18 10:50:00,
2013-12-18 03:00:00,52.2,51.1,29.92,WNW,285,0.0,0.0,96,0.00,,,0.00,Wunderground v.1.15,2013-12-18 11:00:00,
2013-12-18 03:05:00,52.3,51.2,29.92,WNW,285,0.0,0.0,96,0.00,,,0.00,Wunderground v.1.15,2013-12-18 11:05:00,
2013-12-18 03:15:00,52.4,51.3,29.92,WNW,285,0.0,0.0,96,0.00,,,0.00,Wunderground v.1.15,2013-12-18 11:15:00,
2013-12-18 03:24:00,52.5,51.4,29.91,NW,309,0.0,0.0,96,0.00,,,0.00,Wunderground v.1.15,2013-12-18 11:24:00,
2013-12-18 03:29:00,52.4,51.3,29.91,NW,309,0.0,0.0,96,0.00,,,0.00,Wunderground v.1.15,2013-12-18 11:29:00,
2013-12-18 03:35:00,52.4,51.3,29.90,NW,309,0.0,0.0,96,0.00,,,0.00,Wunderground v.1.15,2013-12-18 11:35:00,
2013-12-18 03:45:00,52.5,51.4,29.90,West,270,0.0,0.0,96,0.00,,,0.00,Wunderground v.1.15,2013-12-18 11:45:00,
2013-12-18 03:50:00,52.6,51.5,29.90,West,270,0.0,0.0,96,0.00,,,0.00,Wunderground v.1.15,2013-12-18 11:50:00,
2013-12-18 04:00:00,52.5,51.4,29.90,WNW,297,0.0,0.0,96,0.00,,,0.00,Wunderground v.1.15,2013-12-18 12:00:00,
2013-12-18 04:05:00,52.5,51.4,29.90,WNW,297,0.0,0.0,96,0.00,,,0.00,Wunderground v.1.15,2013-12-18 12:05:00,
2013-12-18 04:15:00,52.4,51.3,29.90,NW,311,0.0,0.0,96,0.00,,,0.00,Wunderground v.1.15,2013-12-18 12:15:00,
2013-12-18 04:25:00,52.4,51.3,29.89,NW,305,0.0,0.0,96,0.00,,,0.00,Wunderground v.1.15,2013-12-18 12:25:00,
2013-12-18 04:35:00,52.4,51.3,29.89,WNW,294,0.0,0.0,96,0.00,,,0.00,Wunderground v.1.15,2013-12-18 12:35:00,
2013-12-18 04:45:00,52.3,51.2,29.89,NW,319,0.0,0.0,96,0.00,,,0.00,Wunderground v.1.15,2013-12-18 12:45:00,
2013-12-18 04:54:00,52.2,51.1,29.89,NW,314,0.0,0.0,96,0.00,,,0.00,Wunderground v.1.15,2013-12-18 12:54:00,
2013-12-18 05:05:00,52.1,51.0,29.89,NW,314,0.0,0.0,96,0.00,,,0.00,Wunderground v.1.15,2013-12-18 13:05:00,
2013-12-18 05:14:00,52.0,50.9,29.89,NW,314,0.0,0.0,96,0.00,,,0.00,Wunderground v.1.15,2013-12-18 13:14:00,
2013-12-18 05:20:00,51.9,50.8,29.89,NW,315,0.0,0.0,96,0.00,,,0.00,Wunderground v.1.15,2013-12-18 13:20:00,
2013-12-18 05:30:00,51.7,50.6,29.89,NW,314,0.0,0.0,96,0.00,,,0.00,Wunderground v.1.15,2013-12-18 13:30:00,
2013-12-18 05:40:00,51.5,50.4,29.88,East,79,0.0,0.0,96,0.00,,,0.00,Wunderground v.1.15,2013-12-18 13:40:00,
2013-12-18 05:49:00,51.3,50.2,29.88,ENE,78,0.0,0.0,96,0.00,,,0.00,Wunderground v.1.15,2013-12-18 13:49:00,
2013-12-18 06:00:00,51.2,50.1,29.88,East,101,0.0,0.0,96,0.00,,,0.00,Wunderground v.1.15,2013-12-18 14:00:00,
2013-12-18 06:05:00,51.2,50.1,29.88,East,100,0.0,0.0,96,0.00,,,0.00,Wunderground v.1.15,2013-12-18 14:05:00,
2013-12-18 06:14:00,51.2,50.1,29.88,East,100,0.0,0.0,96,0.00,,,0.00,Wunderground v.1.15,2013-12-18 14:14:00,
2013-12-18 06:20:00,51.3,50.2,29.89,East,100,0.0,0.0,96,0.00,,,0.00,Wunderground v.1.15,2013-12-18 14:20:00,
2013-12-18 06:30:00,51.4,50.3,29.89,East,100,0.0,0.0,96,0.00,,,0.00,Wunderground v.1.15,2013-12-18 14:30:00,
2013-12-18 06:40:00,51.4,50.3,29.89,East,100,0.0,0.0,96,0.00,,,0.00,Wunderground v.1.15,2013-12-18 14:40:00,
2013-12-18 06:49:00,51.4,50.3,29.90,East,100,0.0,0.0,96,0.00,,,0.00,Wunderground v.1.15,2013-12-18 14:49:00,
2013-12-18 06:55:00,51.4,50.3,29.90,East,100,0.0,0.0,96,0.00,,,0.00,Wunderground v.1.15,2013-12-18 14:55:00,
2013-12-18 07:05:00,51.4,50.3,29.90,East,100,0.0,0.0,96,0.00,,,0.00,Wunderground v.1.15,2013-12-18 15:05:00,
2013-12-18 07:15:00,51.3,50.2,29.90,ENE,66,0.0,0.0,96,0.00,,,0.00,Wunderground v.1.15,2013-12-18 15:15:00,
2013-12-18 07:25:00,51.4,50.3,29.89,ENE,68,0.0,0.0,96,0.00,,,0.00,Wunderground v.1.15,2013-12-18 15:25:00,
2013-12-18 07:30:00,51.4,50.3,29.89,ENE,68,0.0,0.0,96,0.00,,,0.00,Wunderground v.1.15,2013-12-18 15:30:00,
2013-12-18 07:39:00,51.4,50.3,29.89,ENE,66,0.0,0.0,96,0.00,,,0.00,Wunderground v.1.15,2013-12-18 15:39:00,
2013-12-18 07:50:00,51.5,50.4,29.89,East,81,0.0,0.0,96,0.00,,,0.00,Wunderground v.1.15,2013-12-18 15:50:00,
2013-12-18 08:00:00,51.6,50.5,29.89,ESE,116,0.0,0.0,96,0.00,,,0.00,Wunderground v.1.15,2013-12-18 16:00:00,
2013-12-18 08:05:00,51.6,50.5,29.89,East,87,1.0,1.0,96,0.00,,,0.00,Wunderground v.1.15,2013-12-18 16:05:00,
2013-12-18 08:15:00,51.6,50.5,29.89,ENE,77,1.0,1.0,96,0.00,,,0.00,Wunderground v.1.15,2013-12-18 16:15:00,
2013-12-18 08:25:00,51.4,50.3,29.90,East,86,1.0,1.0,96,0.00,,,0.00,Wunderground v.1.15,2013-12-18 16:25:00,
2013-12-18 08:34:00,51.6,50.5,29.90,East,84,0.0,1.0,96,0.00,,,0.00,Wunderground v.1.15,2013-12-18 16:34:00,
2013-12-18 08:40:00,51.7,50.6,29.90,ESE,103,0.0,0.0,96,0.00,,,0.00,Wunderground v.1.15,2013-12-18 16:40:00,
2013-12-18 08:50:00,52.0,50.9,29.90,East,96,0.0,0.0,96,0.00,,,0.00,Wunderground v.1.15,2013-12-18 16:50:00,
2013-12-18 09:00:00,52.2,51.1,29.90,East,96,0.0,0.0,96,0.00,,,0.00,Wunderground v.1.15,2013-12-18 17:00:00,
2013-12-18 09:05:00,52.4,51.3,29.91,East,100,0.0,0.0,96,0.00,,,0.00,Wunderground v.1.15,2013-12-18 17:05:00,
2013-12-18 09:15:00,52.6,51.2,29.91,West,273,0.0,0.0,95,0.00,,,0.00,Wunderground v.1.15,2013-12-18 17:15:00,
2013-12-18 09:25:00,52.6,51.2,29.92,NNW,333,0.0,1.0,95,0.00,,,0.00,Wunderground v.1.15,2013-12-18 17:25:00,
2013-12-18 09:30:00,52.7,51.3,29.92,WNW,302,0.0,1.0,95,0.00,,,0.00,Wunderground v.1.15,2013-12-18 17:30:00,
2013-12-18 09:40:00,52.7,51.0,29.92,NW,318,0.0,1.0,94,0.00,,,0.00,Wunderground v.1.15,2013-12-18 17:40:00,
2013-12-18 09:50:00,52.8,51.1,29.92,NW,307,0.0,0.0,94,0.00,,,0.00,Wunderground v.1.15,2013-12-18 17:50:00,
2013-12-18 10:00:00,53.1,51.1,29.92,ENE,67,0.0,1.0,93,0.00,,,0.00,Wunderground v.1.15,2013-12-18 18:00:00,
2013-12-18 10:05:00,53.2,50.9,29.92,ENE,75,1.0,1.0,92,0.00,,,0.00,Wunderground v.1.15,2013-12-18 18:05:00,
2013-12-18 10:15:00,53.3,50.7,29.92,West,260,0.0,0.0,91,0.00,,,0.00,Wunderground v.1.15,2013-12-18 18:15:00,
2013-12-18 10:24:00,53.8,50.9,29.91,ENE,61,0.0,0.0,90,0.00,,,0.00,Wunderground v.1.15,2013-12-18 18:24:00,
2013-12-18 10:30:00,53.9,50.4,29.91,NW,312,0.0,0.0,88,0.00,,,0.00,Wunderground v.1.15,2013-12-18 18:30:00,
2013-12-18 10:40:00,54.0,50.2,29.90,ENE,68,0.0,0.0,87,0.00,,,0.00,Wunderground v.1.15,2013-12-18 18:40:00,
2013-12-18 10:50:00,54.4,50.3,29.90,East,93,0.0,0.0,86,0.00,,,0.00,Wunderground v.1.15,2013-12-18 18:50:00,
2013-12-18 11:00:00,55.2,50.8,29.90,West,263,0.0,0.0,85,0.00,,,0.00,Wunderground v.1.15,2013-12-18 19:00:00,
2013-12-18 11:05:00,55.6,51.2,29.89,South,186,0.0,0.0,85,0.00,,,0.00,Wunderground v.1.15,2013-12-18 19:05:00,
2013-12-18 11:14:00,55.9,50.8,29.89,ENE,59,0.0,1.0,83,0.00,,,0.00,Wunderground v.1.15,2013-12-18 19:14:00,
2013-12-18 11:20:00,55.5,50.4,29.89,WSW,249,1.0,1.0,83,0.00,,,0.00,Wunderground v.1.15,2013-12-18 19:20:00,
2013-12-18 11:30:00,54.9,50.5,29.89,WNW,282,1.0,1.0,85,0.00,,,0.00,Wunderground v.1.15,2013-12-18 19:30:00,
2013-12-18 11:40:00,54.5,50.4,29.89,West,266,1.0,1.0,86,0.00,,,0.00,Wunderground v.1.15,2013-12-18 19:40:00,
2013-12-18 11:50:00,54.9,50.8,29.88,SW,215,1.0,4.0,86,0.00,,,0.00,Wunderground v.1.15,2013-12-18 19:50:00,
2013-12-18 12:00:00,54.7,50.6,29.88,WNW,298,1.0,1.0,86,0.00,,,0.00,Wunderground v.1.15,2013-12-18 20:00:00,
2013-12-18 12:05:00,54.9,50.8,29.87,WNW,298,0.0,1.0,86,0.00,,,0.00,Wunderground v.1.15,2013-12-18 20:05:00,
2013-12-18 12:15:00,55.5,51.1,29.87,NW,316,0.0,1.0,85,0.00,,,0.00,Wunderground v.1.15,2013-12-18 20:15:00,
2013-12-18 12:25:00,55.6,50.8,29.86,ESE,103,1.0,1.0,84,0.00,,,0.00,Wunderground v.1.15,2013-12-18 20:25:00,
2013-12-18 12:35:00,55.7,50.6,29.84,SSW,212,1.0,1.0,83,0.00,,,0.00,Wunderground v.1.15,2013-12-18 20:35:00,
2013-12-18 12:44:00,55.5,50.7,29.84,East,80,1.0,1.0,84,0.00,,,0.00,Wunderground v.1.15,2013-12-18 20:44:00,
2013-12-18 12:50:00,55.7,50.6,29.84,SE,137,0.0,0.0,83,0.00,,,0.00,Wunderground v.1.15,2013-12-18 20:50:00,
2013-12-18 13:00:00,56.6,50.8,29.84,NW,309,0.0,1.0,81,0.00,,,0.00,Wunderground v.1.15,2013-12-18 21:00:00,
2013-12-18 13:05:00,56.3,50.5,29.83,West,276,0.0,1.0,81,0.00,,,0.00,Wunderground v.1.15,2013-12-18 21:05:00,
2013-12-18 13:15:00,55.1,49.4,29.83,West,278,1.0,1.0,81,0.00,,,0.00,Wunderground v.1.15,2013-12-18 21:15:00,
2013-12-18 13:25:00,54.4,49.3,29.82,WNW,290,1.0,2.0,83,0.00,,,0.00,Wunderground v.1.15,2013-12-18 21:25:00,
2013-12-18 13:34:00,54.1,49.4,29.83,WNW,296,0.0,2.0,84,0.00,,,0.00,Wunderground v.1.15,2013-12-18 21:34:00,
2013-12-18 13:40:00,54.1,49.4,29.83,SW,221,0.0,0.0,84,0.00,,,0.00,Wunderground v.1.15,2013-12-18 21:40:00,
2013-12-18 13:50:00,53.9,49.5,29.83,West,266,1.0,1.0,85,0.00,,,0.00,Wunderground v.1.15,2013-12-18 21:50:00,
2013-12-18 14:00:00,53.9,49.5,29.83,WNW,300,1.0,2.0,85,0.00,,,0.00,Wunderground v.1.15,2013-12-18 22:00:00,
2013-12-18 14:05:00,54.0,49.6,29.82,NE,51,1.0,2.0,85,0.00,,,0.00,Wunderground v.1.15,2013-12-18 22:05:00,
2013-12-18 14:15:00,54.3,49.9,29.82,South,172,1.0,1.0,85,0.00,,,0.00,Wunderground v.1.15,2013-12-18 22:15:00,
2013-12-18 14:20:00,54.6,50.2,29.81,WNW,282,1.0,1.0,85,0.00,,,0.00,Wunderground v.1.15,2013-12-18 22:20:00,
2013-12-18 14:30:00,54.7,50.3,29.81,North,357,1.0,1.0,85,0.00,,,0.00,Wunderground v.1.15,2013-12-18 22:30:00,
2013-12-18 14:40:00,55.1,51.0,29.82,WNW,288,0.0,0.0,86,0.00,,,0.00,Wunderground v.1.15,2013-12-18 22:40:00,
2013-12-18 14:50:00,54.5,50.4,29.81,WNW,283,1.0,1.0,86,0.00,,,0.00,Wunderground v.1.15,2013-12-18 22:50:00,
2013-12-18 15:00:00,54.1,50.3,29.81,ENE,58,0.0,0.0,87,0.00,,,0.00,Wunderground v.1.15,2013-12-18 23:00:00,
2013-12-18 15:05:00,54.1,50.3,29.81,South,176,0.0,0.0,87,0.00,,,0.00,Wunderground v.1.15,2013-12-18 23:05:00,
2013-12-18 15:15:00,54.0,50.2,29.81,WNW,297,0.0,1.0,87,0.00,,,0.00,Wunderground v.1.15,2013-12-18 23:15:00,
2013-12-18 15:24:00,53.6,49.8,29.81,West,273,1.0,1.0,87,0.00,,,0.00,Wunderground v.1.15,2013-12-18 23:24:00,
2013-12-18 15:35:00,53.0,49.8,29.80,WNW,294,1.0,2.0,89,0.00,,,0.00,Wunderground v.1.15,2013-12-18 23:35:00,
2013-12-18 15:45:00,53.0,49.8,29.80,West,260,0.0,1.0,89,0.00,,,0.00,Wunderground v.1.15,2013-12-18 23:45:00,
2013-12-18 15:55:00,53.0,49.8,29.80,WNW,292,0.0,0.0,89,0.00,,,0.00,Wunderground v.1.15,2013-12-18 23:55:00,
2013-12-18 16:05:00,52.9,49.7,29.81,SSW,195,0.0,1.0,89,0.00,,,0.00,Wunderground v.1.15,2013-12-19 00:05:00,
2013-12-18 16:14:00,52.7,49.5,29.81,WNW,288,0.0,0.0,89,0.00,,,0.00,Wunderground v.1.15,2013-12-19 00:14:00,
2013-12-18 16:25:00,52.6,49.4,29.81,NW,319,0.0,1.0,89,0.00,,,0.00,Wunderground v.1.15,2013-12-19 00:25:00,
2013-12-18 16:35:00,52.4,49.6,29.82,ENE,59,0.0,1.0,90,0.00,,,0.00,Wunderground v.1.15,2013-12-19 00:35:00,
2013-12-18 16:45:00,52.3,49.5,29.82,WSW,246,0.0,1.0,90,0.00,,,0.00,Wunderground v.1.15,2013-12-19 00:45:00,
2013-12-18 16:54:00,52.2,49.4,29.81,West,259,0.0,0.0,90,0.00,,,0.00,Wunderground v.1.15,2013-12-19 00:54:00,
2013-12-18 17:05:00,52.1,49.0,29.80,NW,314,0.0,0.0,89,0.00,,,0.00,Wunderground v.1.15,2013-12-19 01:05:00,
2013-12-18 17:15:00,52.1,49.0,29.80,West,270,0.0,0.0,89,0.00,,,0.00,Wunderground v.1.15,2013-12-19 01:15:00,
2013-12-18 17:20:00,52.1,49.0,29.81,West,271,0.0,0.0,89,0.00,,,0.00,Wunderground v.1.15,2013-12-19 01:20:00,
2013-12-18 17:30:00,52.1,49.0,29.81,West,271,0.0,0.0,89,0.00,,,0.00,Wunderground v.1.15,2013-12-19 01:30:00,
2013-12-18 17:40:00,52.1,49.0,29.80,West,271,0.0,0.0,89,0.00,,,0.00,Wunderground v.1.15,2013-12-19 01:40:00,
2013-12-18 17:49:00,52.0,48.6,29.80,NNW,332,0.0,0.0,88,0.00,,,0.00,Wunderground v.1.15,2013-12-19 01:49:00,
2013-12-18 17:55:00,52.0,48.6,29.80,NW,307,0.0,0.0,88,0.00,,,0.00,Wunderground v.1.15,2013-12-19 01:55:00,
2013-12-18 18:05:00,51.9,48.5,29.80,WSW,255,0.0,0.0,88,0.00,,,0.00,Wunderground v.1.15,2013-12-19 02:05:00,
2013-12-18 18:15:00,51.9,48.5,29.80,WNW,291,0.0,0.0,88,0.00,,,0.00,Wunderground v.1.15,2013-12-19 02:15:00,
2013-12-18 18:25:00,51.8,48.4,29.81,NNW,333,0.0,0.0,88,0.00,,,0.00,Wunderground v.1.15,2013-12-19 02:25:00,
2013-12-18 18:35:00,51.7,48.3,29.81,West,280,0.0,0.0,88,0.00,,,0.00,Wunderground v.1.15,2013-12-19 02:35:00,
2013-12-18 18:40:00,51.7,48.3,29.81,WNW,288,1.0,1.0,88,0.00,,,0.00,Wunderground v.1.15,2013-12-19 02:40:00,
2013-12-18 18:50:00,51.7,48.3,29.81,NNW,342,0.0,0.0,88,0.00,,,0.00,Wunderground v.1.15,2013-12-19 02:50:00,
2013-12-18 19:00:00,51.7,48.3,29.81,West,279,0.0,1.0,88,0.00,,,0.00,Wunderground v.1.15,2013-12-19 03:00:00,
2013-12-18 19:05:00,51.6,48.2,29.81,WNW,298,0.0,1.0,88,0.00,,,0.00,Wunderground v.1.15,2013-12-19 03:05:00,
2013-12-18 19:15:00,51.4,48.0,29.81,NNE,29,0.0,0.0,88,0.00,,,0.00,Wunderground v.1.15,2013-12-19 03:15:00,
2013-12-18 19:25:00,51.3,47.9,29.81,WNW,293,0.0,0.0,88,0.00,,,0.00,Wunderground v.1.15,2013-12-19 03:25:00,
2013-12-18 19:35:00,51.3,47.9,29.81,ENE,67,0.0,0.0,88,0.00,,,0.00,Wunderground v.1.15,2013-12-19 03:35:00,
2013-12-18 19:44:00,51.3,47.9,29.81,NW,312,0.0,0.0,88,0.00,,,0.00,Wunderground v.1.15,2013-12-19 03:44:00,
2013-12-18 19:50:00,51.4,48.0,29.81,WNW,300,0.0,1.0,88,0.00,,,0.00,Wunderground v.1.15,2013-12-19 03:50:00,
2013-12-18 20:00:00,51.4,48.0,29.81,WNW,285,0.0,0.0,88,0.00,,,0.00,Wunderground v.1.15,2013-12-19 04:00:00,
2013-12-18 20:05:00,51.4,48.0,29.80,NW,317,0.0,0.0,88,0.00,,,0.00,Wunderground v.1.15,2013-12-19 04:05:00,
2013-12-18 20:15:00,51.4,48.0,29.80,WNW,293,0.0,0.0,88,0.00,,,0.00,Wunderground v.1.15,2013-12-19 04:15:00,
2013-12-18 20:25:00,51.4,47.7,29.80,West,259,0.0,0.0,87,0.00,,,0.00,Wunderground v.1.15,2013-12-19 04:25:00,
2013-12-18 20:35:00,51.5,47.8,29.80,East,82,0.0,0.0,87,0.00,,,0.00,Wunderground v.1.15,2013-12-19 04:35:00,
2013-12-18 20:45:00,51.5,47.8,29.80,SE,146,0.0,1.0,87,0.00,,,0.00,Wunderground v.1.15,2013-12-19 04:45:00,
2013-12-18 20:50:00,51.4,47.7,29.79,SSE,147,0.0,0.0,87,0.00,,,0.00,Wunderground v.1.15,2013-12-19 04:50:00,
2013-12-18 20:55:00,51.4,47.7,29.79,SE,146,0.0,0.0,87,0.00,,,0.00,Wunderground v.1.15,2013-12-19 04:55:00,
2013-12-18 21:05:00,51.4,47.7,29.79,West,268,0.0,0.0,87,0.00,,,0.00,Wunderground v.1.15,2013-12-19 05:05:00,
2013-12-18 21:09:00,51.4,47.7,29.79,West,266,0.0,0.0,87,0.00,,,0.00,Wunderground v.1.15,2013-12-19 05:09:00,
2013-12-18 21:15:00,51.4,47.7,29.79,West,266,0.0,0.0,87,0.00,,,0.00,Wunderground v.1.15,2013-12-19 05:15:00,
2013-12-18 21:25:00,51.4,47.7,29.79,WSW,256,0.0,1.0,87,0.00,,,0.00,Wunderground v.1.15,2013-12-19 05:25:00,
2013-12-18 21:35:00,51.4,47.7,29.78,NW,307,0.0,0.0,87,0.00,,,0.00,Wunderground v.1.15,2013-12-19 05:35:00,
2013-12-18 21:45:00,51.4,47.7,29.78,WNW,286,0.0,0.0,87,0.00,,,0.00,Wunderground v.1.15,2013-12-19 05:45:00,
2013-12-18 21:55:00,51.5,47.8,29.78,WNW,293,0.0,0.0,87,0.00,,,0.00,Wunderground v.1.15,2013-12-19 05:55:00,
2013-12-18 22:05:00,51.6,47.9,29.78,West,278,0.0,1.0,87,0.00,,,0.00,Wunderground v.1.15,2013-12-19 06:05:00,
2013-12-18 22:15:00,51.7,48.3,29.78,West,278,0.0,1.0,88,0.00,,,0.00,Wunderground v.1.15,2013-12-19 06:15:00,
2013-12-18 22:25:00,51.7,48.0,29.77,NNW,333,1.0,1.0,87,0.00,,,0.00,Wunderground v.1.15,2013-12-19 06:25:00,
2013-12-18 22:30:00,51.7,48.0,29.77,WNW,294,1.0,1.0,87,0.00,,,0.00,Wunderground v.1.15,2013-12-19 06:30:00,
2013-12-18 22:40:00,51.6,47.5,29.77,WNW,291,1.0,1.0,86,0.00,,,0.00,Wunderground v.1.15,2013-12-19 06:40:00,
2013-12-18 22:50:00,51.6,46.9,29.77,WNW,293,1.0,1.0,84,0.00,,,0.00,Wunderground v.1.15,2013-12-19 06:50:00,
2013-12-18 23:00:00,51.8,47.4,29.77,NNW,342,1.0,1.0,85,0.00,,,0.00,Wunderground v.1.15,2013-12-19 07:00:00,
2013-12-18 23:05:00,51.9,47.5,29.76,ESE,118,0.0,1.0,85,0.00,,,0.00,Wunderground v.1.15,2013-12-19 07:05:00,
2013-12-18 23:15:00,51.9,47.5,29.76,East,88,1.0,1.0,85,0.00,,,0.00,Wunderground v.1.15,2013-12-19 07:15:00,
2013-12-18 23:25:00,52.0,47.6,29.77,West,281,0.0,1.0,85,0.00,,,0.00,Wunderground v.1.15,2013-12-19 07:25:00,
2013-12-18 23:34:00,52.1,48.0,29.76,WNW,301,0.0,0.0,86,0.00,,,0.00,Wunderground v.1.15,2013-12-19 07:34:00,
2013-12-18 23:40:00,52.1,48.0,29.76,West,277,0.0,1.0,86,0.00,,,0.00,Wunderground v.1.15,2013-12-19 07:40:00,
2013-12-18 23:50:00,52.2,48.4,29.76,NNE,22,1.0,1.0,87,0.00,,,0.00,Wunderground v.1.15,2013-12-19 07:50:00,